{"data":{"norad_id":53192,"epoch":"2026-05-25T03:52:45.575040Z","epoch_age_seconds":71236,"freshness":"FRESH","line1":"1 53192U 22084D   26145.16163860 -.00000395  00000+0 -23318-4 0  9994","line2":"2 53192  97.4464 206.2150 0002084 135.2151 224.9245 15.05633912211551","mean_motion":15.05633912,"eccentricity":0.0002084,"inclination_deg":97.4464,"raan_deg":206.215,"arg_perigee_deg":135.2151,"mean_anomaly_deg":224.9245,"bstar":-2.3318e-5,"rev_number":21155,"period_min":95.640778845582,"perigee_km":548.11677066395,"apogee_km":551.00423498313,"semimajor_km":6927.6975028235,"source":"CELESTRAK","updated_at":"2026-05-25T13:38:17.347827Z"}}